星链-32557 (STARLINK-32557)

导读 | 星芒AI

STARLINK-32557 是 SpaceX Starlink 卫星互联网项目中的一颗低轨卫星,属于第5组星链卫星群。该卫星于2022年发射,旨在为全球用户提供高速互联网服务。它运行在约550公里高度的近地轨道,配备先进通信设备,支持宽带数据传输。Starlink 项目通过部署大量卫星,构建全球覆盖的通信网络,尤其服务于偏远地区。STARLINK-32557 在提升网络连通性和推动数字包容方面发挥着重要作用。

基本信息
目录编号:
62127
目录名称:
STARLINK-32557
国际标识:
2024-222P
轨道中心:
EARTH
卫星名称:
星链-32557
卫星全名:
星链-32557 (STARLINK-32557)
卫星状态:
在轨 (已飞行342 天)
发射日期:
2024-11-27 UTC
国别 :
美国 (US)
星等 :
--
轨道信息
数据来源 国际轨道数据
星历时间: 2025-11-04T12:08:31+0800
4小时前
查看轨道信息
半长轴: 6861.151km
偏心率: 0.0000689
轨道倾角: 43.003°
近地点辐角 271.173°
升交点赤经 114.429°
平近点角 88.904°
近地点: 482.543km
远地点: 483.489km
周期: 94.266分钟
每日圈数: 15.275918
详细信息
固有亮度:
5
最大亮度:
2.5
卫星平台:
Starlink V1.0
覆盖范围:
全球
运营商:
太空探索技术公司
运营商所在国:
美国
制造商(研发单位):
太空探索技术公司
制造商所在国:
美国
使用方式:
暂无
卫星简介
Starlink 计划是 SpaceX 推出的全球卫星互联网项目,通过发射低轨道卫星,为全球尤其是偏远地区提供高速、低延迟的互联网服务。自 2019 年起,Starlink 已部署数千颗卫星,旨在缩小全球数字鸿沟,推动互联网普及。该项目还为军事、航空等行业提供通信支持,带来广泛经济效益。
2D轨道图
3D轨道图
轨道高度分析图
轨道倾角分析图
轨道综合分析图
查看轨道综合分析图